Regional Weather Roundup
Issued by NWS

Home | Current Version | Previous Version | Text Only | Print | Product List | Glossary On
Versions: 1 2 3 4 5 6 7 8 9 10 11 12 13 14 15 16 17 18 19 20 21 22 23 24 25 26 27 28 29 30 31 32 33 34 35 36 37 38 39 40 41 42 43 44 45 46 47 48 49 50
000
ASCA42 TJSJ 050810
RWRPR
PUERTO RICO/U.S. VIRGIN ISLANDS HOURLY WEATHER ROUNDUP
NATIONAL WEATHER SERVICE SAN JUAN PR
400 AM AST THU MAR 05 2015

PRZ001-004-050900-
PUERTO RICO

CITY           SKY/WX    TMP DP  RH WIND       PRES   REMARKS
SAN JUAN LMM   PTCLDY    75  66  73 E14       30.06F
PONCE          PTCLDY    75  63  64 E9        30.02F
CEIBA          CLEAR     75  64  69 E10       30.08S
$$

PRZ006-007-050900-
U.S. VIRGIN ISLANDS

CITY           SKY/WX    TMP DP  RH WIND       PRES   REMARKS
$$

HOURLY WEATHER ROUNDUP FOR THE NEWS MEDIA

CITY           SKY/WX    TMP DP  RH WIND       PRES   REMARKS
ORLANDO        CLEAR     69  66  90 S6        30.06F
NEW YORK       LGT RAIN  40  35  83 NW9       29.93R WCI  34
NEWARK         LGT RAIN  38  35  89 NW9       29.93R WCI  31
CHICAGO        MOCLDY     8  -5  55 N12       30.35F WCI  -7
HARTFORD       LGT RAIN  36  35  96 NW3       29.85S FOG
BOSTON         CLOUDY    37  26  64 W7        29.86S WCI  32
DALLAS         LGT SNOW  27  24  89 N15       30.41R FOG     WCI  15
PHILADELPHIA   LGT RAIN  38  35  89 NW8       29.95F WCI  32
LOS ANGELES    PTCLDY    56  47  71 VRB5      30.16S
WASHINGTON DC  LGT RAIN  37  34  89 N10       29.98S WCI  30



USA.gov is the U.S. government's official web portal to all federal, state and local government web resources and services.